Regional Weather Roundup
Issued by NWS Wakefield, VA

Home | Current Version | Previous Version | Text Only | Print | Product List | Glossary Off
Versions: 1 2 3 4 5 6 7 8 9 10 11 12 13 14 15 16 17 18 19 20 21 22 23 24 25 26 27 28 29 30 31 32 33 34 35 36 37 38 39 40 41 42 43 44 45 46 47 48 49 50

000
ASUS41 KAKQ 050515
RWRAKQ

REGIONAL WEATHER ROUNDUP
NATIONAL WEATHER SERVICE WAKEFIELD VA
1200 AM EST FRI FEB 05 2016

Note: "fair" indicates few or no clouds below 12,000 feet with no
significant weather and/or obstructions to visibility. * = Denotes
station may not report precipitation (e.g., rain,snow,etc.),
thunder or fog.

VAZ042-051-052>054-056-050600-
NORTHERN VIRGINIA

CITY           SKY/WX    TMP DP  RH WIND       PRES   REMARKS
WASH NATIONAL  CLOUDY    42  27  55 NW16      30.11F
DULLES         CLOUDY    40  25  55 NW13G21   30.12F
FORT BELVOIR   CLOUDY    42  25  49 NW12G21   30.08F
QUANTICO       CLOUDY    44  26  49 N15G24    30.11F
FREDERICKSBRG* CLOUDY    42  28  56 N13G20    30.10S
STAFFORD*      CLOUDY    41  26  54 N12G20    30.13F
WARRENTON      CLOUDY    41  29  62 N12G17    30.10S
CULPEPER*      CLOUDY    40  26  59 N13       30.12S
MANASSAS*      CLOUDY    41  27  56 N13G21    30.11F
LEESBURG*      CLOUDY    41  30  65 NW16      30.12F
WINCHESTER     CLOUDY    37  27  65 NW9G16    30.12F
FRONT ROYAL*   CLOUDY    37  27  65 N3        30.12S
LURAY*         CLOUDY    37  27  65 NW7       30.12R
$$

VAZ048-049-060>072-079>083-050600-
CENTRAL AND SOUTH CENTRAL VIRGINIA

CITY           SKY/WX    TMP DP  RH WIND       PRES   REMARKS
RICHMOND       LGT RAIN  40  35  83 N14       30.06S FOG
CHESTERFIELD*  CLOUDY    43  25  49 N10G16    30.08R
PETERSBURG*    LGT RAIN  43  39  86 N8        30.08R
HANOVER        LGT RAIN  40  32  73 N7        30.10R
TAPPAHANNOCK*  LGT RAIN  42  38  86 NW6       30.08S
QUINTON*       CLOUDY    40  38  91 N6        30.05S
CHARLOTTSVILLE CLOUDY    42  27  55 N6        30.08F
GORDONSVILLE*  CLOUDY    41  28  60 NE8       30.08F
ORANGE*        CLOUDY    41  28  60 N12G20    30.12S
LOUISA*        CLOUDY    43  28  56 N12G18    30.08S
BUMPASS*       CLOUDY    42  28  58 N5        30.09R
FARMVILLE*     CLOUDY    44  29  57 NE9       30.06S
CREWE*         CLOUDY    42  33  68 N3        30.08R
FORT PICKETT*  CLOUDY    41  39  91 N8        30.07R
CHASE CITY*    CLOUDY    44  33  66 N6        30.05F
CLARKSVILLE*   CLOUDY    43  41  93 CALM      30.04F
SOUTH HILL*    CLOUDY    40  40  98 N6        30.10S
LAWRENCEVILLE* CLOUDY    40  40  99 N5        30.05R
EMPORIA*       LGT RAIN  41  39  93 NW8       30.05F
$$

VAZ088>098-050600-
SOUTHEAST VIRGINIA

CITY           SKY/WX    TMP DP  RH WIND       PRES   REMARKS
NORFOLK        LGT RAIN  41  38  89 N20G31    30.01F
VIRGINIA BEACH CLOUDY    45  39  79 N20G28    30.00F
NORFOLK NAVAL  CLOUDY    42  38  85 N20G29    30.03F
WEST POINT*    CLOUDY    41  40  97 N5        30.07S
SALUDA*        CLOUDY    39  39 100 N9        30.04F
NEWPORT NEWS   HVY RAIN  41  39  93 NE12G21   30.03F FOG
LANGLEY AFB    CLOUDY    41  39  93 NE18G28   30.00F
FORT EUSTIS    LGT RAIN  41  41 100 NE8       30.02F
WILLIAMSBURG*  CLOUDY    43  43 100 N8        30.05F
HR EXEC AP*    CLOUDY    45  37  76 NE13G18   30.00F
FRANKLIN*      DRIZZLE   41  38  92 N8G17     30.03F
US460-WAKEFLD  LGT RAIN  42  39  89 N6        30.04R FOG
$$

VAZ020-022-025-037-045-050600-
WEST CENTRAL AND SOUTHWEST VIRGINIA

CITY           SKY/WX    TMP DP  RH WIND       PRES   REMARKS
STAUNTON*      CLOUDY    42  28  59 N10G16    30.10F
WAYNESBORO*    CLOUDY    37  25  64 N9        30.07F
HOT SPRINGS VA FLURRIES  28  23  81 NW14G22   29.99F WCI  17
LYNCHBURG      LGT RAIN  39  36  89 NE7       30.09S
DANVILLE       LGT RAIN  42  36  79 N14G21    30.08R
SOUTH BOSTON*  CLOUDY    45  32  60 N10G18    30.06S
MARTINSVILLE   CLOUDY    39  23  54 N12G18    30.10S
ROANOKE        FLURRIES  38  24  57 NW3       30.13S
BLACKSBURG     CLOUDY    34  25  68 NW13G20   30.12F WCI  25
DUBLIN*        CLOUDY    35  23  62 NW18G25   30.11S WCI  24
MARION*        CLOUDY    32  19  58 NW9G17    30.14S
HILLSVILLE*    CLOUDY    32  23  70 NW13G24   30.05F WCI  22
RICHLANDS*     CLOUDY    28  19  67 NW9       30.17R
WISE*          CLOUDY    28  16  59 NW8       30.21S
ABINGDON*      CLOUDY    33  19  56 N12G21    30.18R WCI  25
$$

MDZ021>025-VAZ099-100-050600-
SOUTHERN MARYLAND AND THE DELMARVA PENINSULA

CITY           SKY/WX    TMP DP  RH WIND       PRES   REMARKS
PATUXENT RIVER CLOUDY    41  34  76 N9        30.07F
BAY BRIDGE APT LGT RAIN  39  34  81 NW3       30.08F
LEONARDTOWN    CLOUDY    41  32  70 N5        30.08F
DOVER          LGT RAIN  40  40  99 NW10      30.05F
GEORGETOWN     LGT RAIN  40  38  93 N7        30.04F
EASTON         DRIZZLE   40  35  82 N9        30.10F
CAMBRIDGE      CLOUDY    39  34  81 N13       30.06F
SALISBURY      LGT RAIN  40  38  93 NW8       30.05F FOG
OCEAN CITY     LGT RAIN  40  38  93 N13       30.02F FOG
WALLOPS ISLAND LGT RAIN  40  38  93 N12       30.04F FOG
ACCOMACK*      DRIZZLE   37  36  93 N12G18    30.03F
$$

NCZ012>017-030>032-050600-
NORTH CENTRAL AND EASTERN NORTH CAROLINA

CITY           SKY/WX    TMP DP  RH WIND       PRES   REMARKS
ROANOKE RAPIDS RAIN      41  41 100 N9        30.03S
RALEIGH        DRIZZLE   42  39  89 NE13      30.04R FOG
ELIZABETH CITY HVY RAIN  44  42  93 N16       29.99F FOG
AHOSKIE*       LGT RAIN  41  40  95 N10G18    30.02R
EDENTON*       LGT RAIN  44  44  99 NE8       29.99F
CURRITUCK*     RAIN      45  45 100 N8G20     30.01F
KILL DEVIL HLS RAIN      45  44  97 N9        29.96F
MANTEO         LGT RAIN  46  46 100 NE18      29.97F
CAPE HATTERAS  CLOUDY   N/A N/A N/A N9G16     29.95F
TARBORO*       RAIN      43  41  95 N9        30.01F
GOLDSBORO      LGT RAIN  45  45 100 N9G16     29.95F FOG
WASHINGTON     RAIN      45  44  96 NE6       29.94F
GREENVILLE     DRIZZLE   45  43  93 N13       30.00R
NEW BERN       LGT RAIN  50  48  93 NE10      29.92F
WILMINGTON     LGT RAIN  59  57  93 W15       29.89S
$$

VAZ048-050600-
ELSEWHERE

CITY           SKY/WX    TMP DP  RH WIND       PRES   REMARKS
HARRISBURG PA  CLOUDY    38  27  64 NW10      30.11S
BALTIMORE      LGT RAIN  42  26  53 NW12      30.08F
ANNAPOLIS      LGT RAIN  42  30  62 NW12      30.08F
ANDREWS AFB    CLOUDY    42  28  57 N14       30.07F
PHILADELPHIA   CLOUDY    44  33  65 NW6       30.09R
HENDERSON NC   DRIZZLE   41  39  93 N6        30.04S
GREENSBORO     CLOUDY    44  27  51 N13G18    30.04S
ROCKY MOUNT    RAIN      42  41  96 N18G24    29.99F FOG
$$

VAZ100-050600-
MARINE

STATION/POSITION TIME  TEMP    WIND        PRES    WAVE   SWELL
                       AIR SEA DIR/SP/G            HT/PER HT/PER
                 (UTC) (F)     (DEG/KT/KT) (MB)    (FT/S) (FT/S)
BRANDYWINE LGT   0400   40     330/  7/  9 1018.2F
CAPE MAY NJ      0400   40 43  320/  4/  8 1017.6F
LEWES DE         0400   41 43  330/ 11/ 13 1017.6F
15NM E FENWICK I 0450   41 45              1016.7F   4/ 8
OCEAN-CITY-INLET 0400   42 46  350/ 10/ 12 1016.7F
WACHAPREAGUE VA  0400   41 51   10/  6/ 12 1017.4F
GOOSES REEF MD   0500   42 40  350/ 14/ 16 1019.0F   1/ 2
COVE POINT MD    0400   41      10/ 12/ 14 1019.5R
SOLOMONS ISLAND  0400   42 42  350/  8/ 11   N/A
BISHOPS HEAD MD  0400   41 45  350/  8/ 12 1017.5F
POTOMAC MD       0500   40 41   10/ 12/ 14 1016.5F   0
CAMBRIDGE MD     0400   42 41  330/  8/ 12 1018.4R
LEWISETTA VA     0400   42 45  360/  7/  9 1018.2F
RAPPAHANNOCK LGT 0400          360/ 23/ 25 1017.8F
STINGRAY PT      0500   41 43   20/ 17/ 21 1016.9F   2/ 3
YORK RVR RNG VA  0400   41      30/ 18/ 22 1016.7F
YORKTOWN VA      0400   41 46   20/ 13/ 16 1017.5F
JAMESTOWN VA     0500   41 45  340/  8/ 10   N/A     0
DOMINION TERM VA 0400   41      30/ 11/ 18 1017.5F
KIPTOPEKE VA     0400      45   10/ 13/ 20   N/A
CHES BAY BRIDGE  0400   41 43  340/ 22/ 26 1017.0S
CAPE HENRY VA    0400   41     340/ 21/ 27   N/A
CHESAPEAKE LGHT  0400   43     350/ 18/ 20 1017.2S
WILLOUBY STN VA  0400   41      20/ 22/ 27 1018.1S
CAPE HENRY BUOY  0428      47                N/A     5/ 6
1ST LANDING BUOY 0500      43                N/A     3/ 3
CAPE CHARLES BUO 0426      46                N/A     4/ 6   2/ 9
OFFSHORE WE BUOY 0421      49                N/A     6/ 6   3/ 8
64NM E OF VA BCH 0450   50 53  360/ 19/ 23 1013.4F   6/ 6
DUCK PIER NC     0400   45 46  360/ 17/ 19 1015.0F
44100 DUCK FRF   0424      47                N/A     6/ 6
44056 DUCK FRF   0411      45                N/A     6/ 6
OREGON INLET NC  0400   46 56  350/  9/ 13 1015.1F
HATTERAS NC      0400   60 60   CALM  /  1 1014.4S
DIAMOND SHLS NC  0450   68 69  230/  8/ 16 1013.8F   5/ 7   3/ 7
$$



USA.gov is the U.S. government's official web portal to all federal, state and local government web resources and services.